TimePST,TemperatureF,Dew PointF,Humidity,Sea Level PressureIn,VisibilityMPH,Wind Direction,Wind SpeedMPH,Gust SpeedMPH,PrecipitationIn,Events,Conditions,WindDirDegrees,DateUTC
12:15 AM,33.8,-9999,N/A,29.55,4.0,West,3.5,-,N/A,,Overcast,270,2012-12-12 08:15:00
12:35 AM,33.8,-9999,N/A,29.55,4.0,Calm,Calm,-,N/A,,Overcast,0,2012-12-12 08:35:00
12:55 AM,33.8,33.8,100,29.56,4.0,WSW,3.5,-,N/A,,Overcast,240,2012-12-12 08:55:00
1:15 AM,33.8,33.8,100,29.56,5.0,Calm,Calm,-,N/A,,Overcast,0,2012-12-12 09:15:00
1:35 AM,33.8,-9999,N/A,29.56,5.0,Calm,Calm,-,N/A,,Overcast,0,2012-12-12 09:35:00
1:55 AM,32.0,32.0,100,29.56,2.0,Calm,Calm,-,0.01,,Overcast,0,2012-12-12 09:55:00
2:15 AM,33.8,-9999,N/A,29.57,3.0,Calm,Calm,-,N/A,,Overcast,0,2012-12-12 10:15:00
2:35 AM,33.8,-9999,N/A,29.57,4.0,Calm,Calm,-,N/A,,Overcast,0,2012-12-12 10:35:00
2:55 AM,33.8,-9999,N/A,29.56,10.0,SSE,3.5,-,N/A,,Overcast,160,2012-12-12 10:55:00
3:15 AM,33.8,-9999,N/A,29.56,8.0,SSE,4.6,-,N/A,,Overcast,160,2012-12-12 11:15:00
3:35 AM,33.8,-9999,N/A,29.56,10.0,SSE,4.6,-,0.01,,Overcast,160,2012-12-12 11:35:00
3:55 AM,33.8,-9999,N/A,29.57,10.0,SSE,3.5,-,0.01,,Overcast,160,2012-12-12 11:55:00
4:15 AM,33.8,-9999,N/A,29.57,10.0,South,3.5,-,N/A,,Overcast,170,2012-12-12 12:15:00
4:35 AM,33.8,-9999,N/A,29.57,4.0,South,4.6,-,N/A,,Overcast,170,2012-12-12 12:35:00
5:15 AM,33.8,33.8,100,29.58,10.0,Calm,Calm,-,N/A,,Overcast,0,2012-12-12 13:15:00
5:35 AM,33.8,33.8,100,29.58,4.0,Calm,Calm,-,N/A,,Overcast,0,2012-12-12 13:35:00
5:55 AM,33.8,-9999,N/A,29.59,10.0,Calm,Calm,-,N/A,,Overcast,0,2012-12-12 13:55:00
6:15 AM,33.8,-9999,N/A,29.60,10.0,Calm,Calm,-,N/A,,Overcast,0,2012-12-12 14:15:00
6:35 AM,33.8,-9999,N/A,29.60,10.0,Calm,Calm,-,N/A,,Overcast,0,2012-12-12 14:35:00
6:55 AM,33.8,-9999,N/A,29.61,10.0,South,3.5,-,N/A,,Overcast,170,2012-12-12 14:55:00
7:15 AM,33.8,-9999,N/A,29.62,10.0,South,3.5,-,N/A,,Overcast,180,2012-12-12 15:15:00
7:35 AM,33.8,33.8,100,29.63,4.0,SW,3.5,-,N/A,,Overcast,220,2012-12-12 15:35:00
7:55 AM,33.8,33.8,100,29.64,2.0,SW,4.6,-,N/A,,Overcast,230,2012-12-12 15:55:00
8:15 AM,33.8,32.0,93,29.65,1.5,SW,4.6,-,N/A,,Overcast,230,2012-12-12 16:15:00
8:35 AM,33.8,32.0,93,29.66,1.5,SW,3.5,-,N/A,,Overcast,230,2012-12-12 16:35:00
8:55 AM,33.8,33.8,100,29.67,2.5,SW,3.5,-,N/A,,Overcast,230,2012-12-12 16:55:00
9:15 AM,33.8,32.0,93,29.68,3.0,SW,3.5,-,N/A,,Overcast,220,2012-12-12 17:15:00
9:35 AM,33.8,33.8,100,29.69,1.5,SW,3.5,-,N/A,,Overcast,220,2012-12-12 17:35:00
9:55 AM,33.8,32.0,93,29.69,1.5,Calm,Calm,-,N/A,,Overcast,0,2012-12-12 17:55:00
10:15 AM,33.8,33.8,100,29.70,1.5,Calm,Calm,-,N/A,,Overcast,0,2012-12-12 18:15:00
10:35 AM,33.8,33.8,100,29.70,3.0,SW,3.5,-,N/A,,Overcast,230,2012-12-12 18:35:00
10:55 AM,35.6,33.8,93,29.71,8.0,SW,4.6,-,N/A,,Overcast,220,2012-12-12 18:55:00
11:15 AM,35.6,35.6,100,29.72,3.0,SW,4.6,-,N/A,,Overcast,220,2012-12-12 19:15:00
11:35 AM,35.6,33.8,93,29.72,2.5,WSW,3.5,-,N/A,,Overcast,240,2012-12-12 19:35:00
11:55 AM,33.8,33.8,100,29.72,4.0,Calm,Calm,-,N/A,,Overcast,0,2012-12-12 19:55:00
12:15 PM,35.6,35.6,100,29.73,10.0,WSW,3.5,-,N/A,,Overcast,240,2012-12-12 20:15:00
12:35 PM,35.6,35.6,100,29.73,10.0,SW,5.8,-,N/A,,Overcast,220,2012-12-12 20:35:00
12:55 PM,35.6,33.8,93,29.74,10.0,SW,8.1,-,N/A,,Overcast,220,2012-12-12 20:55:00
1:15 PM,35.6,35.6,100,29.74,10.0,SW,6.9,-,N/A,,Overcast,220,2012-12-12 21:15:00
1:35 PM,35.6,35.6,100,29.75,10.0,SSW,4.6,-,N/A,,Overcast,210,2012-12-12 21:35:00
1:55 PM,35.6,33.8,93,29.76,10.0,SW,6.9,-,N/A,,Overcast,230,2012-12-12 21:55:00
2:15 PM,35.6,33.8,93,29.77,10.0,SW,6.9,-,N/A,,Overcast,230,2012-12-12 22:15:00
2:35 PM,33.8,33.8,100,29.78,7.0,WSW,5.8,-,N/A,,Overcast,240,2012-12-12 22:35:00
2:55 PM,33.8,32.0,93,29.78,8.0,SW,4.6,-,N/A,,Overcast,230,2012-12-12 22:55:00
3:15 PM,33.8,32.0,93,29.79,3.0,WSW,4.6,-,N/A,,Overcast,240,2012-12-12 23:15:00
3:35 PM,33.8,33.8,100,29.79,3.0,WSW,3.5,-,N/A,,Overcast,250,2012-12-12 23:35:00
3:55 PM,33.8,33.8,100,29.80,5.0,Calm,Calm,-,N/A,,Overcast,0,2012-12-12 23:55:00
4:15 PM,33.8,32.0,93,29.81,4.0,West,4.6,-,N/A,,Overcast,270,2012-12-13 00:15:00
4:35 PM,33.8,32.0,93,29.81,7.0,West,8.1,-,N/A,,Overcast,270,2012-12-13 00:35:00
4:55 PM,33.8,32.0,93,29.82,7.0,West,5.8,-,N/A,,Overcast,260,2012-12-13 00:55:00
5:15 PM,33.8,32.0,93,29.83,5.0,WSW,5.8,-,N/A,,Overcast,240,2012-12-13 01:15:00
5:35 PM,33.8,33.8,100,29.83,5.0,West,6.9,-,N/A,,Overcast,260,2012-12-13 01:35:00
5:55 PM,33.8,32.0,93,29.84,3.0,West,6.9,-,N/A,,Overcast,260,2012-12-13 01:55:00
6:15 PM,33.8,30.2,87,29.84,2.0,WSW,6.9,-,N/A,,Overcast,250,2012-12-13 02:15:00
6:35 PM,33.8,30.2,87,29.84,2.5,WSW,5.8,-,N/A,,Overcast,240,2012-12-13 02:35:00
6:55 PM,33.8,32.0,93,29.85,2.5,WSW,4.6,-,N/A,,Overcast,250,2012-12-13 02:55:00
7:35 PM,33.8,32.0,93,29.87,2.5,WSW,6.9,-,N/A,,Overcast,250,2012-12-13 03:35:00
7:55 PM,33.8,32.0,93,29.87,3.0,SW,6.9,-,0.01,,Overcast,230,2012-12-13 03:55:00
8:15 PM,33.8,32.0,93,29.87,3.0,WSW,6.9,-,N/A,,Overcast,250,2012-12-13 04:15:00
8:35 PM,32.0,32.0,100,29.88,4.0,WSW,6.9,-,N/A,,Overcast,240,2012-12-13 04:35:00
8:55 PM,33.8,32.0,93,29.89,6.0,WSW,5.8,-,N/A,,Overcast,240,2012-12-13 04:55:00
9:15 PM,33.8,32.0,93,29.89,6.0,SW,5.8,-,N/A,,Overcast,220,2012-12-13 05:15:00
9:35 PM,32.0,30.2,93,29.90,8.0,SW,5.8,-,N/A,,Overcast,220,2012-12-13 05:35:00
9:55 PM,32.0,30.2,93,29.91,9.0,WSW,5.8,-,N/A,,Overcast,240,2012-12-13 05:55:00
10:15 PM,33.8,32.0,93,29.91,8.0,SSW,5.8,-,N/A,,Overcast,210,2012-12-13 06:15:00
10:35 PM,33.8,30.2,87,29.92,9.0,SW,5.8,-,N/A,,Overcast,230,2012-12-13 06:35:00
10:55 PM,33.8,32.0,93,29.93,10.0,WSW,6.9,-,N/A,,Overcast,250,2012-12-13 06:55:00
11:15 PM,33.8,32.0,93,29.93,10.0,West,5.8,-,N/A,,Overcast,260,2012-12-13 07:15:00
11:35 PM,32.0,30.2,93,29.93,5.0,WSW,6.9,-,N/A,,Overcast,240,2012-12-13 07:35:00
11:55 PM,32.0,32.0,100,29.94,2.5,WSW,5.8,-,N/A,,Overcast,250,2012-12-13 07:55:00